Location: Ladrillo (historical)
(32.8195°N, 117.2231°W)
Time: 03:22:12
(UTC+00:00)

ALOS - Pass Details

Date: 29 October 2020
Orbit: 683 x 685 km, 97.9° (Epoch: 26 November)

Event Time Altitude Azimuth Distance (km) Brightness Sun altitude
Rises 12:21:36 0° 11° (N) 3,051 5.7 -22.2°
Reaches altitude 10° 12:23:50 10° 11° (N) 2,132 4.9 -21.7°
Maximum altitude 12:28:31 87° 285° (WNW) 689 2.1 -20.7°
Drops below altitude 10° 12:33:09 10° 194° (SSW) 2,119 4.7 -19.7°
Sets 12:35:23 0° 194° (SSW) 3,031 5.5 -19.3°
